Flag for Switzerland Weather past 2 weeks in Schwyz, Schwyz, Switzerland

Now
31 °F

Partly sunny.


Feels Like: 31 °F
Forecast: 22 / 37 °F
Wind: 1 mph from West

Location: Altdorf

Current Time: Jan 31, 2015 at 11:23:31 AM

Latest Report: Jan 31, 2015 at 10:00 AM


Visibility: 13 mi

Pressure: 29.15 "Hg

Humidity: 85%

Dew point: 27 °F

Location of SchwyzLocation

Historic Weather in Schwyz — Graph

°F

Schwyz temperature yesterday

Maximum temperature yesterday: 45 °F (at 12:00 AM)
Minimum temperature yesterday: 32 °F (at 11:00 PM)
Average temperature yesterday: 37 °F

Past Weeks' High & Low Weather Summary

 TemperatureHumidityPressure
High58 °F (Jan 16, 11:00 AM)99% (Jan 27, 1:00 AM)30.49 "Hg (Jan 27, 1:00 AM)
Low24 °F (Jan 26, 6:00 AM)32% (Jan 16, 11:00 AM)28.85 "Hg (Jan 30, 12:00 AM)
Average35 °F79%29.94 "Hg
* Reported Jan 16 10:00 AM — Jan 31 10:00 AM, Schwyz, Weather by CustomWeather, © 2014

Note: Actual official high and low records may vary slightly from our data, if they occured in-between our weather recording intervals... More about our weather records

Advertising

Schwyz weather history for previous 24 hours

 ConditionsComfort  
Time TempWeatherWind HumidityBarometerVisibility
10:00 AM
Jan 31
31 °FPartly sunny.1 mph85%29.15 "Hg12 mi
9:00 AM29 °FChilly.No wind96%29.15 "HgN/A
8:00 AM30 °FChilly.1 mph96%29.15 "HgN/A
7:00 AM32 °FLight rain. Ice fog.1 mph93%29.12 "Hg1 mi
6:00 AM31 °FChilly.No wind96%29.12 "HgN/A
5:00 AM31 °FChilly.1 mph97%29.12 "HgN/A
3:00 AM30 °FChilly.No wind98%29.12 "HgN/A
2:00 AM31 °FChilly.1 mph96%29.09 "HgN/A
1:00 AM32 °FSnow. Ice fog.1 mph95%29.09 "Hg1 mi
12:00 AM31 °FChilly.1 mph96%29.06 "HgN/A
11:00 PM
Jan 30
32 °FChilly.1 mph92%29.06 "HgN/A
10:00 PM32 °FSnow flurries. Overcast.1 mph85%29.03 "Hg7 mi
9:00 PM34 °FChilly.3 mph71%29.00 "HgN/A
8:00 PM34 °FChilly.5 mph72%29.00 "HgN/A
7:00 PM35 °FPassing clouds.6 mph64%28.97 "Hg12 mi
6:00 PM34 °FChilly.5 mph74%28.97 "HgN/A
5:00 PM35 °FChilly.3 mph63%28.97 "HgN/A
4:00 PM37 °FPartly sunny.5 mph56%28.97 "Hg12 mi
3:00 PM40 °FChilly.16 mph40%28.97 "HgN/A
2:00 PM38 °FChilly.15 mph46%28.97 "HgN/A
1:00 PM39 °FPartly sunny.16 mph41%29.00 "Hg11 mi
12:00 PM38 °FChilly.18 mph45%29.03 "HgN/A
11:00 AM37 °FChilly.17 mph43%29.06 "HgN/A
Weather by CustomWeather, © 2014

See weather overviewHow to use our weather pages